Time,TemperatureF,DewpointF,PressureIn,WindDirection,WindDirectionDegrees,WindSpeedMPH,WindSpeedGustMPH,Humidity,HourlyPrecipIn,Conditions,Clouds,dailyrainin,SoftwareType,DateUTC
2014-01-01 00:06:00,17.6,7.0,30.27,NNW,334,3.0,10.0,64,0.00,,,0.00,weatherlink.com 1.10,2014-01-01 05:06:00,
2014-01-01 00:21:00,17.5,8.0,30.27,WNW,297,3.0,9.0,65,0.00,,,0.00,weatherlink.com 1.10,2014-01-01 05:21:00,
2014-01-01 00:36:00,17.5,8.0,30.27,WNW,297,2.0,7.0,65,0.00,,,0.00,weatherlink.com 1.10,2014-01-01 05:36:00,
2014-01-01 00:51:00,17.5,8.0,30.28,WNW,302,5.0,8.0,67,0.00,,,0.00,weatherlink.com 1.10,2014-01-01 05:51:00,
2014-01-01 01:06:00,17.5,8.0,30.28,NW,323,4.0,13.0,67,0.00,,,0.00,weatherlink.com 1.10,2014-01-01 06:06:00,
2014-01-01 01:21:00,17.4,8.0,30.29,WNW,302,7.0,16.0,68,0.00,,,0.00,weatherlink.com 1.10,2014-01-01 06:21:00,
2014-01-01 01:36:00,17.5,8.0,30.30,WNW,302,5.0,13.0,67,0.00,,,0.00,weatherlink.com 1.10,2014-01-01 06:36:00,
2014-01-01 01:52:00,17.3,8.0,30.29,WNW,294,7.0,10.0,68,0.00,,,0.00,weatherlink.com 1.10,2014-01-01 06:52:00,
2014-01-01 02:07:00,17.4,8.0,30.31,NW,325,5.0,15.0,67,0.00,,,0.00,weatherlink.com 1.10,2014-01-01 07:07:00,
2014-01-01 02:22:00,17.3,8.0,30.31,SSW,198,4.0,13.0,67,0.00,,,0.00,weatherlink.com 1.10,2014-01-01 07:22:00,
2014-01-01 02:37:00,17.1,8.0,30.32,WSW,258,5.0,14.0,67,0.00,,,0.00,weatherlink.com 1.10,2014-01-01 07:37:00,
2014-01-01 02:52:00,17.1,8.0,30.32,WSW,256,4.0,8.0,67,0.00,,,0.00,weatherlink.com 1.10,2014-01-01 07:52:00,
2014-01-01 03:07:00,16.9,8.0,30.32,WNW,293,6.0,11.0,67,0.00,,,0.00,weatherlink.com 1.10,2014-01-01 08:07:00,
2014-01-01 03:22:00,16.8,8.0,30.32,WNW,286,4.0,10.0,67,0.00,,,0.00,weatherlink.com 1.10,2014-01-01 08:22:00,
2014-01-01 03:37:00,16.9,8.0,30.33,WNW,295,6.0,14.0,67,0.00,,,0.00,weatherlink.com 1.10,2014-01-01 08:37:00,
2014-01-01 03:52:00,16.7,7.0,30.33,WSW,253,9.0,18.0,67,0.00,,,0.00,weatherlink.com 1.10,2014-01-01 08:52:00,
2014-01-01 04:07:00,16.4,8.0,30.32,West,278,4.0,15.0,68,0.00,,,0.00,weatherlink.com 1.10,2014-01-01 09:07:00,
2014-01-01 04:22:00,16.2,8.0,30.33,WNW,300,3.0,13.0,69,0.00,,,0.00,weatherlink.com 1.10,2014-01-01 09:22:00,
2014-01-01 04:37:00,16.0,8.0,30.33,SW,216,4.0,11.0,70,0.00,,,0.00,weatherlink.com 1.10,2014-01-01 09:37:00,
2014-01-01 04:53:00,16.0,7.0,30.33,NW,311,5.0,9.0,69,0.00,,,0.00,weatherlink.com 1.10,2014-01-01 09:53:00,
2014-01-01 05:07:00,16.1,8.0,30.33,WSW,239,6.0,8.0,69,0.00,,,0.00,weatherlink.com 1.10,2014-01-01 10:07:00,
2014-01-01 05:22:00,16.2,7.0,30.34,SSW,205,4.0,12.0,68,0.00,,,0.00,weatherlink.com 1.10,2014-01-01 10:22:00,
2014-01-01 05:37:00,16.4,8.0,30.34,NW,323,4.0,12.0,68,0.00,,,0.00,weatherlink.com 1.10,2014-01-01 10:37:00,
2014-01-01 05:52:00,16.4,7.0,30.35,NW,304,6.0,13.0,67,0.00,,,0.00,weatherlink.com 1.10,2014-01-01 10:52:00,
2014-01-01 06:07:00,16.4,8.0,30.35,WNW,284,3.0,7.0,68,0.00,,,0.00,weatherlink.com 1.10,2014-01-01 11:07:00,
2014-01-01 06:22:00,16.6,7.0,30.35,WNW,297,6.0,15.0,67,0.00,,,0.00,weatherlink.com 1.10,2014-01-01 11:22:00,
2014-01-01 06:37:00,16.3,7.0,30.35,SW,224,2.0,10.0,67,0.00,,,0.00,weatherlink.com 1.10,2014-01-01 11:37:00,
2014-01-01 06:52:00,16.0,7.0,30.36,West,274,1.0,8.0,68,0.00,,,0.00,weatherlink.com 1.10,2014-01-01 11:52:00,
2014-01-01 07:07:00,16.1,7.0,30.37,NW,307,4.0,8.0,68,0.00,,,0.00,weatherlink.com 1.10,2014-01-01 12:07:00,
2014-01-01 07:22:00,16.5,7.0,30.37,WNW,297,4.0,12.0,67,0.00,,,0.00,weatherlink.com 1.10,2014-01-01 12:22:00,
2014-01-01 07:37:00,16.0,7.0,30.37,WNW,287,2.0,9.0,68,0.00,,,0.00,weatherlink.com 1.10,2014-01-01 12:37:00,
2014-01-01 07:52:00,16.1,8.0,30.38,NW,304,2.0,5.0,69,0.00,,,0.00,weatherlink.com 1.10,2014-01-01 12:52:00,
2014-01-01 08:07:00,16.3,8.0,30.39,NW,304,3.0,5.0,69,0.00,,,0.00,weatherlink.com 1.10,2014-01-01 13:07:00,
2014-01-01 08:22:00,16.7,8.0,30.40,WNW,284,2.0,9.0,68,0.00,,,0.00,weatherlink.com 1.10,2014-01-01 13:22:00,
2014-01-01 08:37:00,17.0,8.0,30.40,NW,310,5.0,8.0,68,0.00,,,0.00,weatherlink.com 1.10,2014-01-01 13:37:00,
2014-01-01 08:52:00,17.5,8.0,30.41,WNW,303,5.0,8.0,67,0.00,,,0.00,weatherlink.com 1.10,2014-01-01 13:52:00,
2014-01-01 09:07:00,17.7,8.0,30.41,NW,321,2.0,12.0,67,0.00,,,0.00,weatherlink.com 1.10,2014-01-01 14:07:00,
2014-01-01 09:22:00,17.9,9.0,30.42,NW,319,6.0,16.0,67,0.00,,,0.00,weatherlink.com 1.10,2014-01-01 14:22:00,
2014-01-01 09:37:00,18.4,9.0,30.42,West,277,2.0,11.0,66,0.00,,,0.00,weatherlink.com 1.10,2014-01-01 14:37:00,
2014-01-01 09:53:00,19.2,9.0,30.41,NW,308,5.0,19.0,65,0.00,,,0.00,weatherlink.com 1.10,2014-01-01 14:53:00,
2014-01-01 10:08:00,19.4,9.0,30.42,NW,311,9.0,15.0,64,0.00,,,0.00,weatherlink.com 1.10,2014-01-01 15:08:00,
2014-01-01 10:23:00,19.7,9.0,30.42,NW,311,4.0,16.0,62,0.00,,,0.00,weatherlink.com 1.10,2014-01-01 15:23:00,
2014-01-01 10:38:00,20.2,9.0,30.42,NNW,338,8.0,18.0,62,0.00,,,0.00,weatherlink.com 1.10,2014-01-01 15:38:00,
2014-01-01 10:53:00,20.3,9.0,30.42,NW,304,15.0,17.0,61,0.00,,,0.00,weatherlink.com 1.10,2014-01-01 15:53:00,
2014-01-01 11:08:00,20.7,8.0,30.41,WNW,293,6.0,20.0,59,0.00,,,0.00,weatherlink.com 1.10,2014-01-01 16:08:00,
2014-01-01 11:23:00,21.0,8.0,30.41,NNW,332,13.0,18.0,57,0.00,,,0.00,weatherlink.com 1.10,2014-01-01 16:23:00,
2014-01-01 11:38:00,21.2,8.0,30.41,West,266,6.0,18.0,56,0.00,,,0.00,weatherlink.com 1.10,2014-01-01 16:38:00,
2014-01-01 11:53:00,21.7,8.0,30.40,West,266,7.0,17.0,56,0.00,,,0.00,weatherlink.com 1.10,2014-01-01 16:53:00,
2014-01-01 12:08:00,21.7,8.0,30.39,WNW,287,6.0,19.0,55,0.00,,,0.00,weatherlink.com 1.10,2014-01-01 17:08:00,
2014-01-01 12:23:00,22.0,8.0,30.39,WNW,287,8.0,14.0,56,0.00,,,0.00,weatherlink.com 1.10,2014-01-01 17:23:00,
2014-01-01 12:38:00,22.1,8.0,30.39,NW,304,5.0,13.0,56,0.00,,,0.00,weatherlink.com 1.10,2014-01-01 17:38:00,
2014-01-01 12:53:00,22.2,9.0,30.39,SSE,149,2.0,13.0,56,0.00,,,0.00,weatherlink.com 1.10,2014-01-01 17:53:00,
2014-01-01 13:08:00,22.4,9.0,30.39,North,349,9.0,14.0,56,0.00,,,0.00,weatherlink.com 1.10,2014-01-01 18:08:00,
2014-01-01 13:23:00,22.8,9.0,30.39,WSW,245,3.0,11.0,56,0.00,,,0.00,weatherlink.com 1.10,2014-01-01 18:23:00,
2014-01-01 13:38:00,22.9,9.0,30.39,NW,321,7.0,12.0,55,0.00,,,0.00,weatherlink.com 1.10,2014-01-01 18:38:00,
2014-01-01 13:53:00,23.1,9.0,30.38,WNW,283,4.0,10.0,54,0.00,,,0.00,weatherlink.com 1.10,2014-01-01 18:53:00,
2014-01-01 14:08:00,22.9,9.0,30.38,WSW,253,5.0,10.0,55,0.00,,,0.00,weatherlink.com 1.10,2014-01-01 19:08:00,
2014-01-01 14:23:00,23.1,10.0,30.38,NNW,329,5.0,8.0,57,0.00,,,0.00,weatherlink.com 1.10,2014-01-01 19:23:00,
2014-01-01 14:38:00,23.2,9.0,30.37,NW,309,3.0,11.0,56,0.00,,,0.00,weatherlink.com 1.10,2014-01-01 19:38:00,
2014-01-01 14:53:00,23.3,10.0,30.37,NW,309,5.0,8.0,56,0.00,,,0.00,weatherlink.com 1.10,2014-01-01 19:53:00,
2014-01-01 15:08:00,23.3,10.0,30.37,NW,316,2.0,8.0,58,0.00,,,0.00,weatherlink.com 1.10,2014-01-01 20:08:00,
2014-01-01 15:23:00,23.2,10.0,30.38,NW,307,4.0,8.0,58,0.00,,,0.00,weatherlink.com 1.10,2014-01-01 20:23:00,
2014-01-01 15:38:00,23.4,11.0,30.38,West,270,1.0,7.0,59,0.00,,,0.00,weatherlink.com 1.10,2014-01-01 20:38:00,
2014-01-01 15:53:00,23.4,11.0,30.38,WNW,292,2.0,5.0,59,0.00,,,0.00,weatherlink.com 1.10,2014-01-01 20:53:00,
2014-01-01 16:08:00,23.4,11.0,30.38,NW,309,1.0,6.0,59,0.00,,,0.00,weatherlink.com 1.10,2014-01-01 21:08:00,
2014-01-01 16:23:00,23.3,11.0,30.38,NNW,333,3.0,6.0,60,0.00,,,0.00,weatherlink.com 1.10,2014-01-01 21:23:00,
2014-01-01 16:38:00,23.1,11.0,30.38,NW,314,2.0,5.0,61,0.00,,,0.00,weatherlink.com 1.10,2014-01-01 21:38:00,
2014-01-01 16:53:00,23.0,12.0,30.38,NW,323,4.0,5.0,62,0.00,,,0.00,weatherlink.com 1.10,2014-01-01 21:53:00,
2014-01-01 17:08:00,22.9,12.0,30.38,NW,323,3.0,6.0,62,0.00,,,0.00,weatherlink.com 1.10,2014-01-01 22:08:00,
2014-01-01 17:23:00,22.8,12.0,30.38,NNW,336,1.0,5.0,63,0.00,,,0.00,weatherlink.com 1.10,2014-01-01 22:23:00,
2014-01-01 17:38:00,22.7,13.0,30.39,NW,311,1.0,3.0,65,0.00,,,0.00,weatherlink.com 1.10,2014-01-01 22:38:00,
2014-01-01 17:53:00,22.5,12.0,30.38,NNW,340,0.0,1.0,65,0.00,,,0.00,weatherlink.com 1.10,2014-01-01 22:53:00,
2014-01-01 18:08:00,22.4,13.0,30.39,NNW,340,0.0,1.0,66,0.00,,,0.00,weatherlink.com 1.10,2014-01-01 23:08:00,
2014-01-01 18:23:00,22.3,12.0,30.39,North,4,0.0,1.0,66,0.00,,,0.00,weatherlink.com 1.10,2014-01-01 23:23:00,
2014-01-01 18:38:00,22.2,13.0,30.39,North,4,0.0,0.0,68,0.00,,,0.00,weatherlink.com 1.10,2014-01-01 23:38:00,
2014-01-01 18:53:00,22.1,13.0,30.39,North,3,0.0,0.0,69,0.00,,,0.00,weatherlink.com 1.10,2014-01-01 23:53:00,
2014-01-01 19:08:00,22.0,14.0,30.39,North,4,0.0,0.0,71,0.00,,,0.00,weatherlink.com 1.10,2014-01-02 00:08:00,
2014-01-01 19:23:00,21.8,14.0,30.39,North,4,0.0,0.0,72,0.00,,,0.00,weatherlink.com 1.10,2014-01-02 00:23:00,
2014-01-01 19:38:00,21.9,14.0,30.40,North,4,0.0,0.0,73,0.00,,,0.00,weatherlink.com 1.10,2014-01-02 00:38:00,
2014-01-01 19:53:00,21.6,15.0,30.40,NE,37,0.0,1.0,74,0.00,,,0.00,weatherlink.com 1.10,2014-01-02 00:53:00,
2014-01-01 20:08:00,20.8,15.0,30.39,East,95,0.0,0.0,79,0.00,,,0.00,weatherlink.com 1.10,2014-01-02 01:08:00,
2014-01-01 20:23:00,20.2,16.0,30.39,East,94,0.0,0.0,83,0.00,,,0.00,weatherlink.com 1.10,2014-01-02 01:23:00,
2014-01-01 20:38:00,19.6,16.0,30.39,ENE,57,0.0,3.0,86,0.00,,,0.00,weatherlink.com 1.10,2014-01-02 01:38:00,
2014-01-01 20:53:00,19.2,16.0,30.39,NE,54,0.0,0.0,88,0.00,,,0.00,weatherlink.com 1.10,2014-01-02 01:53:00,
2014-01-01 21:08:00,18.8,16.0,30.39,NE,53,0.0,2.0,88,0.00,,,0.00,weatherlink.com 1.10,2014-01-02 02:08:00,
2014-01-01 21:23:00,18.6,16.0,30.38,NE,47,2.0,2.0,88,0.00,,,0.00,weatherlink.com 1.10,2014-01-02 02:23:00,
2014-01-01 21:38:00,18.3,15.0,30.38,ENE,68,2.0,2.0,88,0.00,,,0.00,weatherlink.com 1.10,2014-01-02 02:38:00,
2014-01-01 21:53:00,18.1,15.0,30.38,NE,53,0.0,1.0,89,0.00,,,0.00,weatherlink.com 1.10,2014-01-02 02:53:00,
2014-01-01 22:08:00,18.0,15.0,30.37,NE,49,0.0,0.0,89,0.00,,,0.00,weatherlink.com 1.10,2014-01-02 03:08:00,
2014-01-01 22:23:00,17.9,15.0,30.37,East,86,0.0,1.0,89,0.00,,,0.00,weatherlink.com 1.10,2014-01-02 03:23:00,
2014-01-01 22:38:00,17.9,16.0,30.37,ENE,71,0.0,1.0,90,0.00,,,0.00,weatherlink.com 1.10,2014-01-02 03:38:00,
2014-01-01 22:53:00,17.8,15.0,30.36,NE,56,0.0,0.0,90,0.00,,,0.00,weatherlink.com 1.10,2014-01-02 03:53:00,
2014-01-01 23:08:00,17.8,15.0,30.36,NE,56,0.0,0.0,90,0.00,,,0.00,weatherlink.com 1.10,2014-01-02 04:08:00,
2014-01-01 23:23:00,17.8,15.0,30.35,NE,56,0.0,0.0,90,0.00,,,0.00,weatherlink.com 1.10,2014-01-02 04:23:00,
2014-01-01 23:38:00,17.8,15.0,30.35,ENE,57,0.0,0.0,90,0.00,,,0.00,weatherlink.com 1.10,2014-01-02 04:38:00,
2014-01-01 23:53:00,17.7,15.0,30.34,ENE,57,0.0,0.0,90,0.00,,,0.00,weatherlink.com 1.10,2014-01-02 04:53:00,